CW3175 Weather Reports


time (UTC)temp
F
wind
direction
speed
knots
gust
knots
rain 1hr
in
rain 24hr
in
rain mn
in
humidity
%
barometer
mb
20141031060134 48 272 0.0 3.5 0.00 0.00 0.00 66 1015.0
20141031054615 48 272 0.0 4.3 0.00 0.00 0.00 66 1015.2
20141031053105 48 274 0.9 4.3 0.00 0.00 0.00 65 1015.4
20141031051558 48 269 0.0 2.6 0.00 0.00 0.00 65 1015.4
20141031050037 48 254 0.0 1.7 0.00 0.00 0.00 65 1015.5
20141031043032 48 284 0.0 4.3 0.00 0.00 0.00 65 1015.6
20141031041532 48 276 0.9 5.2 0.00 0.00 0.00 64 1015.8
20141031040020 48 269 0.9 6.1 0.00 0.00 0.00 64 1015.8
20141031034503 48 278 0.0 5.2 0.00 0.00 0.00 63 1015.8
20141031033004 48 276 0.9 5.2 0.00 0.00 0.00 62 1016.0
20141031031456 49 266 0.0 4.3 0.00 0.00 0.00 62 1016.1
20141031025954 49 252 0.9 7.0 0.00 0.00 0.00 62 1016.2
20141031024455 49 296 0.9 4.3 0.00 0.00 0.00 61 1016.2
20141031022940 49 271 0.9 5.2 0.00 0.00 0.00 60 1016.2
20141031021432 49 287 0.0 2.6 0.00 0.00 0.00 60 1016.2
20141031015932 49 301 0.0 0.9 0.00 0.00 0.00 59 1016.1
20141031014432 49 301 0.0 0.9 0.00 0.00 0.00 59 1016.2
20141031012932 50 258 0.0 1.7 0.00 0.00 0.00 59 1016.2
20141031011432 49 244 0.0 2.6 0.00 0.00 0.00 59 1016.3
20141031010141 50 271 0.0 2.6 0.00 0.00 0.00 58 1016.6
20141031004419 50 261 0.0 4.3 0.00 0.00 0.00 58 1016.5
20141031002910 50 273 0.0 3.5 0.00 0.00 0.00 57 1016.7
20141031001404 50 269 0.0 0.0 0.00 0.00 0.00 57 1016.8
20141030235852 50 269 0.0 2.6 0.00 0.00 0.00 57 1016.8
20141030234339 50 269 0.0 3.5 0.00 0.00 0.00 56 1016.8
20141030232838 50 281 0.0 4.3 0.00 0.00 0.00 56 1016.8
20141030231339 51 252 0.0 4.3 0.00 0.00 0.00 56 1016.8
20141030225838 51 246 0.0 2.6 0.00 0.00 0.00 56 1016.8
20141030224322 51 226 0.0 5.2 0.00 0.00 0.00 55 1016.8
20141030222821 51 220 0.9 8.7 0.00 0.00 0.00 55 1016.8
20141030221304 51 255 0.0 6.1 0.00 0.00 0.00 54 1016.7
20141030215757 51 248 0.9 6.1 0.00 0.00 0.00 53 1016.5
20141030214258 52 264 0.9 6.1 0.00 0.00 0.00 52 1016.5
20141030212753 52 276 0.9 7.0 0.00 0.00 0.00 51 1016.6
20141030211233 52 204 1.7 7.8 0.00 0.00 0.00 51 1016.6
20141030205730 52 229 2.6 11.3 0.00 0.00 0.00 51 1016.5
20141030204228 52 240 1.7 9.6 0.00 0.00 0.00 52 1016.5
20141030202729 52 235 2.6 8.7 0.00 0.00 0.00 51 1016.6
20141030201227 53 225 1.7 10.4 0.00 0.00 0.00 50 1016.6
20141030195727 53 260 1.7 7.8 0.00 0.00 0.00 50 1016.5
20141030194226 53 210 0.9 8.7 0.00 0.00 0.00 50 1016.7
20141030192727 52 219 1.7 8.7 0.00 0.00 0.00 49 1016.8
20141030191226 52 233 1.7 10.4 0.00 0.00 0.00 49 1016.8
20141030185727 52 219 3.5 10.4 0.00 0.00 0.00 49 1017.1
20141030184227 52 257 3.5 12.2 0.00 0.00 0.00 49 1017.2
20141030182725 51 223 2.6 9.6 0.00 0.00 0.00 52 1017.3
20141030181226 51 257 1.7 10.4 0.00 0.00 0.00 52 1017.6
20141030175727 51 214 1.7 9.6 0.00 0.00 0.00 52 1017.7
20141030174226 51 197 1.7 9.6 0.00 0.00 0.00 52 1017.9
20141030172725 50 180 2.6 10.4 0.00 0.00 0.00 52 1018.3
20141030171225 50 182 2.6 9.6 0.00 0.00 0.00 52 1018.4
20141030165726 50 196 2.6 9.6 0.00 0.00 0.00 52 1018.5
20141030164220 50 185 3.5 9.6 0.00 0.00 0.00 52 1018.8
20141030162720 50 231 2.6 12.2 0.00 0.00 0.00 52 1018.9
20141030161220 49 185 2.6 10.4 0.00 0.00 0.00 55 1018.9
20141030155704 49 199 1.7 8.7 0.00 0.00 0.00 55 1018.9
20141030154204 49 222 0.9 5.2 0.00 0.00 0.00 57 1018.9
20141030152650 47 217 0.9 6.1 0.00 0.00 0.00 62 1019.0
20141030151147 46 191 0.9 6.1 0.00 0.00 0.00 64 1019.0
20141030145628 45 194 1.7 5.2 0.00 0.00 0.00 68 1019.5
20141030144127 44 155 0.0 4.3 0.00 0.00 0.00 74 1019.5
20141030142624 43 181 0.0 1.7 0.00 0.00 0.00 76 1019.6
20141030141124 43 317 0.0 0.0 0.00 0.00 0.00 76 1019.5
20141030135606 42 317 0.0 0.0 0.00 0.00 0.00 77 1019.6
20141030134048 42 317 0.0 1.7 0.00 0.00 0.00 77 1019.6
20141030132538 41 317 0.0 2.6 0.00 0.00 0.00 78 1019.7
20141030131036 40 317 0.0 0.9 0.00 0.00 0.00 80 1019.6
20141030125516 40 317 0.0 0.0 0.00 0.00 0.00 81 1019.6
20141030124004 39 317 0.0 0.0 0.00 0.00 0.00 81 1019.6
20141030122502 39 317 0.0 0.0 0.00 0.00 0.00 82 1019.6
20141030120945 39 317 0.0 0.0 0.00 0.00 0.00 82 1019.5
20141030115411 38 317 0.0 0.0 0.00 0.00 0.00 82 1019.5
20141030113842 38 317 0.0 0.0 0.00 0.00 0.00 82 1019.5
20141030112322 38 317 0.0 0.0 0.00 0.00 0.00 82 1019.6
20141030110821 39 317 0.0 0.0 0.00 0.00 0.00 82 1019.6
20141030105321 39 317 0.0 1.7 0.00 0.00 0.00 82 1019.6
20141030103738 39 317 0.0 0.0 0.00 0.00 0.00 82 1019.4
20141030102209 39 317 0.0 0.0 0.00 0.00 0.00 82 1019.2
20141030100651 39 317 0.0 0.0 0.00 0.00 0.00 81 1019.1
20141030095147 39 317 0.0 0.0 0.00 0.00 0.00 81 1019.2
20141030093636 39 317 0.0 0.0 0.00 0.00 0.00 82 1019.5
20141030092057 39 317 0.0 0.0 0.00 0.00 0.00 81 1019.4
20141030090521 39 317 0.0 0.0 0.00 0.00 0.00 81 1019.4
20141030085016 40 317 0.0 0.0 0.00 0.00 0.00 80 1019.5
20141030083445 40 317 0.0 0.0 0.00 0.00 0.00 80 1019.5
20141030081927 40 317 0.0 0.0 0.00 0.00 0.00 79 1019.5
20141030080414 40 317 0.0 0.0 0.00 0.00 0.00 79 1019.4
20141030074908 41 317 0.0 0.0 0.00 0.00 0.00 78 1019.5
20141030073359 41 317 0.0 0.0 0.00 0.00 0.00 78 1019.5
20141030071850 41 317 0.0 0.0 0.00 0.00 0.00 77 1019.5
20141030070336 41 317 0.0 0.0 0.00 0.00 0.00 76 1019.2
20141030064812 41 317 0.0 0.0 0.00 0.00 0.00 76 1019.4
20141030063312 42 317 0.0 0.0 0.00 0.00 0.00 75 1019.2
20141030061813 42 317 0.0 0.0 0.00 0.00 0.00 74 1019.2